Location: ???????
(37.9857°N, 23.9821°E)
Time: 23:14:12
(UTC+00:00)

Daily predictions for brighter satellites

Satellite Brightness Start Highest point End
(mag) Time Altitude Azimuth Time Altitude Azimuth Time Altitude Azimuth
Cosmos 1437 Rocket 4.2 16:30:34 10° NNW 16:34:18 43° W 16:37:56 10° SSW
USA 306 2.9 16:30:26 10° SW 16:34:43 84° SE 16:39:01 10° NE
Cosmos 2227 Rocket 2.3 16:30:20 10° NNW 16:36:03 90° ENE 16:41:41 10° SSE
Cosmos 1939 Rocket 3.3 16:34:19 10° S 16:38:09 65° WSW 16:42:00 10° NNW
USA 308 2.9 16:34:18 10° SW 16:38:35 86° SE 16:42:52 10° NE
FALCON 9 DEB 3.2 16:35:42 10° SW 16:38:50 71° NW 16:42:01 10° NE
Cosmos 1743 Rocket 3.5 16:35:14 10° S 16:39:34 78° E 16:43:57 10° N
Cosmos 1805 Rocket 4.0 16:36:41 10° SSE 16:40:43 38° E 16:44:47 10° NNE
H-2A R/B 2.4 16:38:37 10° SE 16:43:43 46° ENE 16:48:54 10° N
ARGOS 3.9 16:39:04 10° SE 16:43:48 32° ENE 16:48:31 10° N
Cosmos 1850 Rocket 4.1 16:39:05 10° N 16:44:09 51° ENE 16:49:12 10° SE
Meteor 1-27 Rocket 4.1 16:40:06 10° N 16:45:16 39° ENE 16:50:25 10° SE
H-2A R/B 4.1 16:42:29 10° N 16:46:03 29° WNW 16:49:34 10° SW
Cosmos 2278 3.8 16:40:37 10° S 16:46:08 58° ESE 16:51:43 10° NNE
ERBS 4.4 16:45:26 10° SE 16:46:46 12° ESE 16:48:05 10° E
COSMOS 2455 3.6 16:44:34 10° N 16:49:54 32° NE 16:55:13 10° ESE
Aureole 1 Rocket 4.0 16:42:40 10° NNW 16:49:56 68° ENE 16:55:27 10° SSE
Cosmos 1862 4.0 16:46:03 10° SSW 16:49:59 60° W 16:54:00 10° N
Cosmos 2228 Rocket 3.2 16:48:51 10° N 16:53:19 57° E 16:57:42 10° SSE
Cosmos 2297 Rocket 3.3 16:48:05 10° NNW 16:53:30 49° WSW 16:58:55 10° S
Cosmos 1709 Rocket 4.2 16:49:43 10° S 16:55:49 79° W 17:02:03 10° N
CZ-2D R/B 3.9 16:53:50 10° S 16:57:34 60° W 17:01:20 10° NNW
Cosmos 1461 4.4 16:54:04 10° SSE 16:57:37 22° ESE 17:00:54 11° ENE
FALCON 9 DEB 4.2 16:54:42 10° WSW 16:57:42 38° NW 17:00:42 10° NE
Cosmos 1271 Rocket 4.1 16:55:39 10° NNE 16:58:10 17° ENE 17:00:01 13° ESE
CZ-2C R/B 3.2 16:54:14 10° NNE 16:59:22 38° E 17:04:21 10° SSE
HJ-1C 4.2 16:56:32 10° SE 16:59:29 30° ENE 17:02:26 10° N
CZ-2C R/B 3.7 16:54:06 10° S 16:59:53 70° WSW 17:05:37 10° NNW
Gbstr 26 Del rocket 3.2 16:57:19 10° SW 17:01:29 80° NW 17:06:35 10° NE
Cosmos 1666 Rocket 4.3 16:58:51 10° SSE 17:02:38 30° E 17:06:26 10° NNE
Cosmos 1331 Rocket 4.0 16:57:59 10° S 17:03:14 73° ESE 17:08:30 10° NNE
Cosmos 2084 4.1 16:59:11 10° SW 17:03:17 55° NW 17:07:30 10° NNE
Cosmos 2181 Rocket 4.1 16:57:17 10° N 17:03:43 66° E 17:10:04 10° SSE
CSL-04 Rocket 4.2 16:59:08 10° SE 17:04:15 40° ENE 17:09:23 10° N
Cosmos 1812 3.5 17:00:37 10° NNW 17:04:22 55° W 17:08:06 10° S
Cosmos 292 Rocket 4.4 17:03:33 10° SSW 17:08:13 59° WNW 17:12:56 10° N
Cosmos 1689 Rocket 1.8 17:06:06 10° NNE 17:08:59 81° ESE 17:11:50 10° S
BREEZE-M DEB (TANK) 3.1 17:05:18 10° SW 17:13:35 53° SE 17:15:40 21° ENE
Cosmos 1242 Rocket 4.1 17:13:43 10° NNW 17:17:02 38° W 17:20:22 10° SSW
YAOGAN 1 2.5 17:12:57 10° SSE 17:17:16 89° WSW 17:21:37 10° NNW
Okean-O 2.6 17:13:47 10° SSE 17:18:12 89° ENE 17:22:39 10° NNW
Cosmos 1818 3.8 17:12:49 10° NW 17:18:17 75° WSW 17:23:42 10° SSE
Helios 1A Rocket 2.9 17:14:46 10° SSE 17:18:45 55° ENE 17:22:44 10° N
Abrixas rocket 2.4 17:16:49 10° SSW 17:19:05 30° SE 17:19:11 30° SE
Cosmos 1980 Rocket 2.6 17:15:59 10° SSW 17:21:35 66° WNW 17:27:15 10° NNE
Cosmos 220 Rocket 4.4 17:17:47 10° SSW 17:21:56 62° WNW 17:26:08 10° NNE
IRIS 4.4 17:19:15 10° W 17:21:56 42° N 17:22:37 32° NE
SL-4 R/B 4.1 17:22:46 10° WNW 17:25:06 16° NNW 17:27:22 10° NNE
Sich 1 3.2 17:24:46 10° SSW 17:29:05 76° W 17:33:29 10° N
Cosmos 2322 Rocket 2.9 17:26:20 10° SSE 17:31:07 30° ESE 17:33:02 24° ENE
Cosmos 1302 Rocket 3.9 17:26:08 10° S 17:31:14 65° ESE 17:36:23 10° NNE
BREEZE-M DEB (TANK) 3.7 17:28:52 10° SW 17:32:13 90° SW 17:44:13 10° NE
Lacrosse 5 rocket 1.3 17:28:50 10° NW 17:33:13 77° NE 17:35:19 28° SE
Atlas Centaur 2 4.4 17:30:13 10° WSW 17:33:54 16° SSW 17:37:10 10° S
Cosmos 44 3.6 17:32:17 10° NNW 17:37:45 80° WSW 17:43:04 10° SSE
Cosmos 968 Rocket 4.4 17:34:41 10° N 17:39:07 27° ENE 17:39:07 27° ENE
Cosmos 1867 4.4 17:34:39 10° SW 17:39:54 50° NW 17:45:14 10° NNE
Meteor 1-20 Rocket 4.0 17:38:21 10° S 17:43:48 83° E 17:49:17 10° N
Cosmos 1707 Rocket 3.4 17:40:20 10° N 17:44:46 84° E 17:49:07 10° S
Cosmos 1633 Rocket 2.9 17:40:42 10° S 17:45:05 78° E 17:49:31 10° N
USA 234 4.2 17:42:57 10° NE 17:49:04 44° NW 17:55:12 10° WSW
Cosmos 1437 2.7 17:46:39 10° NNW 17:49:16 65° NW 17:49:16 65° NW
SME Rocket 4.4 17:41:35 10° NNE 17:49:58 51° E 17:55:26 10° S
SL-16 R/B 2.2 17:44:49 10° S 17:50:22 59° ESE 17:55:07 14° NNE
ERS-2 4.4 17:48:10 10° NNW 17:51:15 26° WNW 17:54:21 10° SW
Cosmos 2327 Rocket 4.4 17:48:26 10° S 17:54:47 73° E 18:01:06 10° N
Meteor 1-19 Rocket 4.4 17:51:56 10° N 17:57:49 55° ENE 18:00:06 35° SE
Cosmos 2154 Rocket 3.9 17:55:01 10° S 18:01:16 82° E 18:07:30 10° N
Ariane Rocket 3.5 18:03:13 40° NE 18:03:13 40° NE 18:07:10 10° N
NOSS 2-1 (E) 4.5 17:57:17 10° NNW 18:02:54 85° ENE 18:07:33 26° SE
CZ-4 R/B 4.2 18:01:01 10° SW 18:03:43 18° W 18:06:26 10° NW
IRS-1A Rocket 4.4 18:04:36 49° E 18:04:59 50° ENE 18:10:25 10° N
Nadezhda 3 Rocket 3.9 17:59:50 10° N 18:06:11 71° E 18:12:09 12° SSE
DMSP B5D2-2 4.1 18:02:18 10° N 18:07:32 77° WNW 18:12:44 10° SSW
Cosmos 2263 Rocket 2.0 18:06:47 10° NNW 18:12:22 89° ENE 18:14:10 45° SSE
Cosmos 1610 Rocket 4.5 18:06:17 10° S 18:12:25 82° W 18:18:40 10° N
DMSP B5D2-7 4.5 18:11:44 48° SSE 18:13:16 77° ENE 18:18:42 10° N
Meteor 1-14 Rocket 4.0 18:08:26 10° S 18:14:02 71° E 18:19:35 10° NNE
Cosmos 1470 Rocket 3.8 18:12:36 10° S 18:20:13 20° N 18:21:35 10° N
ERBS 4.4 18:19:21 10° WSW 18:21:02 26° WSW 18:21:02 26° WSW
Meteor 2-4 Rocket 4.4 18:25:51 10° N 18:29:44 41° NNE 18:29:44 41° NNE
GP-B 4.1 18:33:07 41° NNW 18:33:07 41° NNW 18:36:13 10° N
COSMOS 2455 4.0 18:30:19 10° NW 18:35:53 40° WSW 18:39:47 18° S
Cosmos 1461 4.4 18:32:01 10° SW 18:36:26 40° NW 18:37:22 36° NNW
Meteor 1-18 Rocket 4.4 18:30:33 10° NNW 18:36:28 74° W 18:38:04 49° SSW
Cosmos 2341 Rocket 4.1 18:39:35 10° S 18:46:43 71° N 18:52:18 10° N
Cosmos 2360 Rocket 4.5 18:44:11 10° SSW 18:44:34 12° SSW 18:44:34 12° SSW
Lacrosse 5 rocket 4.5 19:10:35 10° W 19:11:00 11° WSW 19:11:00 11° WSW
Cosmos 2322 Rocket 3.6 19:09:57 10° SW 19:15:01 34° WNW 19:15:03 34° WNW
SL-16 R/B 4.5 19:30:47 10° W 19:34:52 20° NW 19:37:13 16° NNW
